{"data":{"norad_id":67029,"epoch":"2026-05-25T01:32:40.684992Z","epoch_age_seconds":76663,"freshness":"FRESH","line1":"1 67029U 25293AC  26145.06435978  .00003013  00000+0  26013-3 0  9996","line2":"2 67029  70.0014 262.0587 0003597 268.8090  91.2657 14.98335791 26328","mean_motion":14.98335791,"eccentricity":0.0003597,"inclination_deg":70.0014,"raan_deg":262.0587,"arg_perigee_deg":268.809,"mean_anomaly_deg":91.2657,"bstar":0.00026013,"rev_number":2632,"period_min":96.106627676493,"perigee_km":569.53800487098,"apogee_km":574.53796075361,"semimajor_km":6950.1749828123,"source":"CELESTRAK","updated_at":"2026-05-25T13:38:21.435382Z"}}